GW5586 Weather Reports


time (UTC)temp
C
wind
direction
speed
KPH
gust
KPH
rain 1hr
cm
rain 24hr
cm
rain mn
cm
humidity
%
barometer
mb
20260506213153 10 232 9.7 16.1 0.00 0.00 0.00 60 1022.8
20260506212530 10 329 6.4 14.5 0.00 0.00 0.00 62 1022.7
20260506212026 10 325 3.2 14.5 0.00 0.00 0.00 62 1022.6
20260506211633 10 350 6.4 14.5 0.00 0.00 0.00 60 1022.7
20260506211040 11 328 6.4 14.5 0.00 0.00 0.00 59 1022.6
20260506210530 11 352 3.2 8.0 0.00 0.00 0.00 59 1022.6
20260506210117 11 334 3.2 12.9 0.00 0.00 0.00 60 1022.5
20260506205522 10 341 1.6 8.0 0.00 0.00 0.00 61 1022.4
20260506205022 10 279 3.2 14.5 0.00 0.00 0.00 60 1022.5
20260506204643 10 317 6.4 14.5 0.00 0.00 0.00 60 1022.4
20260506204106 10 319 8.0 14.5 0.00 0.00 0.00 61 1022.4
20260506203540 11 311 3.2 12.9 0.00 0.00 0.00 61 1022.4
20260506203131 11 302 3.2 14.5 0.00 0.00 0.00 62 1022.4
20260506202546 10 14 8.0 14.5 0.00 0.00 0.00 62 1022.3
20260506202033 10 15 1.6 8.0 0.00 0.00 0.00 63 1022.2
20260506201616 10 314 4.8 9.7 0.00 0.00 0.00 62 1022.3
20260506201015 10 323 4.8 9.7 0.00 0.00 0.00 64 1022.3
20260506200544 10 334 4.8 12.9 0.00 0.00 0.00 63 1022.3
20260506200136 10 257 3.2 9.7 0.00 0.00 0.00 64 1022.2
20260506195532 10 329 4.8 9.7 0.00 0.00 0.00 66 1022.1
20260506195030 10 284 4.8 12.9 0.00 0.00 0.00 65 1022.2
20260506194625 10 295 4.8 14.5 0.00 0.00 0.00 66 1022.3
20260506194056 10 340 8.0 14.5 0.00 0.00 0.00 64 1022.2
20260506193522 10 332 4.8 17.7 0.00 0.00 0.00 67 1022.2
20260506193123 10 360 8.0 17.7 0.00 0.00 0.00 67 1022.1
20260506192519 10 348 6.4 16.1 0.00 0.00 0.00 66 1022.1
20260506192029 10 318 6.4 19.3 0.00 0.00 0.00 68 1022.1
20260506191705 9 352 8.0 19.3 0.00 0.00 0.00 68 1022.0
20260506191033 9 346 9.7 17.7 0.00 0.00 0.00 67 1022.0
20260506190530 9 300 9.7 17.7 0.00 0.00 0.00 67 1022.1
20260506190137 9 332 6.4 17.7 0.00 0.00 0.00 68 1022.0
20260506185514 9 334 6.4 16.1 0.00 0.00 0.00 66 1021.9
20260506185044 9 341 6.4 16.1 0.00 0.00 0.00 68 1021.9
20260506184712 9 302 8.0 22.5 0.00 0.00 0.00 69 1021.9
20260506184016 9 321 9.7 14.5 0.00 0.00 0.00 68 1021.8
20260506183532 9 334 4.8 14.5 0.00 0.00 0.00 68 1021.8
20260506183154 9 310 3.2 14.5 0.00 0.00 0.00 69 1021.8
20260506182521 9 324 6.4 17.7 0.00 0.00 0.00 69 1021.9
20260506182026 9 345 6.4 17.7 0.00 0.00 0.00 69 1021.9
20260506181627 9 344 9.7 14.5 0.00 0.00 0.00 68 1021.8
20260506181022 9 346 4.8 19.3 0.00 0.00 0.00 70 1021.8
20260506180537 9 298 9.7 19.3 0.00 0.00 0.00 68 1021.8
20260506180051 9 298 4.8 12.9 0.00 0.00 0.00 69 1021.8
20260506175525 9 315 6.4 16.1 0.00 0.00 0.00 69 1021.7
20260506175036 8 298 3.2 16.1 0.00 0.00 0.00 71 1021.9
20260506174630 8 317 4.8 19.3 0.00 0.00 0.00 71 1021.8
20260506174025 8 330 9.7 19.3 0.00 0.00 0.00 71 1021.8
20260506173521 8 333 8.0 17.7 0.00 0.00 0.00 71 1021.7
20260506173200 8 343 6.4 17.7 0.00 0.00 0.00 72 1021.8
20260506172526 8 306 8.0 17.7 0.00 0.00 0.00 72 1021.9
20260506172041 8 288 6.4 17.7 0.00 0.00 0.00 73 1021.8
20260506171653 8 308 8.0 19.3 0.00 0.00 0.00 72 1021.8
20260506171051 7 306 8.0 19.3 0.00 0.00 0.00 72 1021.8
20260506170540 7 322 8.0 17.7 0.00 0.00 0.00 73 1021.9
20260506170059 7 301 8.0 17.7 0.00 0.00 0.00 74 1021.9
20260506165534 7 326 8.0 16.1 0.00 0.00 0.00 74 1021.9
20260506165112 7 331 3.2 17.7 0.00 0.00 0.00 74 1021.9
20260506164703 7 302 6.4 17.7 0.00 0.00 0.00 73 1021.8
20260506164050 7 333 4.8 14.5 0.00 0.00 0.00 73 1021.9
20260506163609 7 321 6.4 16.1 0.00 0.00 0.00 73 1021.8
20260506163149 7 344 6.4 16.1 0.00 0.00 0.00 74 1021.9
20260506162548 7 300 8.0 14.5 0.00 0.00 0.00 74 1021.8
20260506162050 7 296 4.8 12.9 0.00 0.00 0.00 74 1021.8
20260506161642 7 254 3.2 14.5 0.00 0.00 0.00 74 1021.7
20260506161016 7 311 6.4 14.5 0.00 0.00 0.00 74 1021.7
20260506160555 7 328 6.4 16.1 0.00 0.00 0.00 75 1021.6
20260506160143 7 344 8.0 16.1 0.00 0.00 0.00 74 1021.5
20260506155609 7 292 6.4 14.5 0.00 0.00 0.00 75 1021.5
20260506155028 7 316 8.0 16.1 0.00 0.00 0.00 74 1021.4
20260506154714 7 227 8.0 16.1 0.00 0.00 0.00 76 1021.3
20260506154030 7 315 6.4 17.7 0.00 0.00 0.00 76 1021.4
20260506153516 7 327 9.7 17.7 0.00 0.00 0.00 76 1021.3
20260506153126 7 338 6.4 14.5 0.00 0.00 0.00 76 1021.3
20260506152610 7 327 8.0 14.5 0.00 0.00 0.00 76 1021.3
20260506152021 7 319 6.4 14.5 0.00 0.00 0.00 77 1021.2
20260506151645 7 309 4.8 12.9 0.00 0.00 0.00 77 1021.3
20260506151029 7 317 4.8 12.9 0.00 0.00 0.00 77 1021.2
20260506150542 7 288 3.2 12.9 0.00 0.00 0.00 78 1021.2
20260506150150 7 325 4.8 11.3 0.00 0.00 0.00 77 1021.2
20260506145612 7 279 4.8 11.3 0.00 0.00 0.00 77 1021.1
20260506145055 7 310 4.8 14.5 0.00 0.00 0.00 77 1021.0
20260506144622 7 319 8.0 14.5 0.00 0.00 0.00 76 1020.9
20260506144114 7 293 3.2 11.3 0.00 0.00 0.00 77 1021.0
20260506143530 7 315 3.2 14.5 0.00 0.00 0.00 77 1021.0
20260506143111 7 302 3.2 14.5 0.00 0.00 0.00 77 1021.0
20260506142550 7 311 3.2 8.0 0.00 0.00 0.00 77 1020.9
20260506142042 7 270 3.2 14.5 0.00 0.00 0.00 78 1020.9
20260506141625 7 273 6.4 14.5 0.00 0.00 0.00 78 1020.8
20260506141042 7 338 3.2 11.3 0.00 0.00 0.00 78 1020.8
20260506140530 7 275 3.2 14.5 0.00 0.00 0.00 78 1020.8
20260506140120 7 336 4.8 14.5 0.00 0.00 0.00 78 1020.8
20260506135530 7 295 4.8 14.5 0.00 0.00 0.00 78 1020.7
20260506135019 7 309 4.8 14.5 0.00 0.00 0.00 78 1020.6
20260506134616 7 281 4.8 12.9 0.00 0.00 0.00 78 1020.5
20260506134029 7 264 3.2 14.5 0.00 0.00 0.00 78 1020.5
20260506133534 7 326 6.4 14.5 0.00 0.00 0.00 78 1020.5
20260506133149 7 277 4.8 14.5 0.00 0.00 0.00 78 1020.4
20260506132545 7 262 6.4 14.5 0.00 0.00 0.00 78 1020.3
20260506132032 7 270 4.8 12.9 0.00 0.00 0.00 78 1020.3
20260506131631 7 315 4.8 16.1 0.00 0.00 0.00 78 1020.2
20260506131030 7 240 4.8 16.1 0.00 0.00 0.00 78 1020.1
20260506130518 7 300 6.4 14.5 0.00 0.00 0.00 78 1020.2
20260506130109 7 332 9.7 16.1 0.00 0.00 0.00 78 1020.2
20260506125530 7 319 6.4 16.1 0.00 0.00 0.00 78 1020.2
20260506125029 7 259 3.2 16.1 0.00 0.00 0.00 79 1020.2
20260506124630 7 269 6.4 14.5 0.00 0.00 0.00 79 1020.2
20260506124044 7 291 4.8 14.5 0.00 0.00 0.00 79 1020.1
20260506123533 7 277 6.4 16.1 0.00 0.00 0.00 79 1020.0
20260506123052 7 283 6.4 16.1 0.00 0.00 0.00 79 1019.9
20260506122524 7 265 6.4 14.5 0.00 0.00 0.00 79 1019.9
20260506122025 7 271 8.0 14.5 0.00 0.00 0.00 80 1019.9
20260506121631 7 281 6.4 14.5 0.00 0.00 0.00 81 1019.9
20260506121025 7 284 4.8 12.9 0.00 0.00 0.00 81 1019.8
20260506120538 7 290 6.4 17.7 0.00 0.00 0.00 82 1019.8
20260506120206 7 313 6.4 17.7 0.00 0.00 0.00 82 1019.7
20260506115527 7 287 4.8 16.1 0.00 0.00 0.00 82 1019.6
20260506115026 7 302 8.0 14.5 0.00 0.00 0.00 82 1019.7
20260506114714 7 293 4.8 17.7 0.00 0.00 0.00 82 1019.6
20260506114026 7 315 6.4 17.7 0.00 0.00 0.00 82 1019.6
20260506113522 7 282 8.0 17.7 0.00 0.00 0.00 82 1019.6
20260506113046 7 297 8.0 17.7 0.00 0.00 0.00 82 1019.5
20260506112543 7 326 6.4 17.7 0.00 0.00 0.00 81 1019.5
20260506112029 7 335 8.0 19.3 0.00 0.00 0.00 82 1019.4
20260506111621 7 304 8.0 19.3 0.00 0.00 0.00 82 1019.5
20260506111026 7 320 8.0 17.7 0.00 0.00 0.00 82 1019.4
20260506110557 7 253 6.4 16.1 0.00 0.00 0.00 83 1019.4
20260506110130 7 352 6.4 14.5 0.00 0.00 0.00 83 1019.4
20260506105527 7 294 4.8 17.7 0.00 0.00 0.00 83 1019.3
20260506105023 7 341 4.8 12.9 0.00 0.00 0.00 84 1019.3
20260506104644 7 295 4.8 12.9 0.00 0.00 0.00 84 1019.3
20260506104044 7 319 4.8 12.9 0.00 0.00 0.00 84 1019.3
20260506103539 7 273 4.8 14.5 0.00 0.00 0.00 84 1019.3
20260506103125 7 296 4.8 14.5 0.00 0.00 0.00 83 1019.3
20260506102535 7 262 4.8 16.1 0.00 0.00 0.00 84 1019.3
20260506102039 7 294 6.4 14.5 0.00 0.00 0.00 84 1019.2
20260506101650 7 278 4.8 16.1 0.00 0.00 0.00 83 1019.2
20260506101023 7 309 4.8 16.1 0.00 0.00 0.00 83 1019.2
20260506100543 7 263 8.0 19.3 0.00 0.00 0.00 82 1019.2
20260506100154 7 247 8.0 19.3 0.00 0.00 0.00 82 1019.2
20260506095528 7 307 8.0 14.5 0.00 0.00 0.00 82 1019.1
20260506095038 7 248 6.4 16.1 0.00 0.00 0.00 82 1019.2
20260506094700 7 325 11.3 16.1 0.00 0.00 0.00 81 1019.1
20260506094041 7 349 11.3 16.1 0.00 0.00 0.00 81 1019.1
20260506093531 7 221 8.0 12.9 0.00 0.00 0.00 81 1019.0
20260506093125 7 243 4.8 14.5 0.00 0.00 0.00 80 1019.0
20260506092521 7 276 4.8 14.5 0.00 0.00 0.00 80 1018.8
20260506092030 7 253 8.0 14.5 0.00 0.00 0.00 79 1018.9
20260506091620 7 271 9.7 17.7 0.00 0.00 0.00 79 1018.8
20260506091041 7 271 11.3 17.7 0.00 0.00 0.00 79 1018.8
20260506090529 7 268 9.7 16.1 0.00 0.00 0.00 79 1018.8
20260506090148 7 258 8.0 14.5 0.00 0.00 0.00 79 1018.8
20260506085518 7 261 6.4 14.5 0.00 0.00 0.00 79 1018.7
20260506085030 7 288 8.0 14.5 0.00 0.00 0.00 78 1018.7
20260506084638 7 258 6.4 17.7 0.00 0.00 0.00 78 1018.7
20260506084034 7 257 9.7 17.7 0.00 0.00 0.00 78 1018.8
20260506083538 7 253 8.0 14.5 0.00 0.00 0.00 77 1018.7
20260506083109 7 243 8.0 19.3 0.00 0.00 0.00 76 1018.7
20260506082535 7 271 8.0 20.9 0.00 0.00 0.00 76 1018.6
20260506082047 7 309 11.3 20.9 0.00 0.00 0.00 76 1018.6
20260506081645 7 302 11.3 19.3 0.00 0.00 0.00 75 1018.6
20260506081039 7 317 6.4 17.7 0.00 0.00 0.00 75 1018.6
20260506080534 7 270 8.0 17.7 0.00 0.00 0.00 74 1018.6
20260506080208 7 303 6.4 22.5 0.00 0.00 0.00 74 1018.6
20260506073525 7 258 12.9 17.7 0.00 0.00 0.00 74 1018.3
20260506073152 7 309 8.0 20.9 0.00 0.00 0.00 74 1018.3
20260506072522 7 267 8.0 20.9 0.00 0.00 0.00 74 1018.2
20260506072056 7 257 11.3 25.7 0.00 0.00 0.00 73 1018.2
20260506071650 7 269 11.3 29.0 0.00 0.00 0.00 73 1018.2
20260506071109 7 248 14.5 29.0 0.00 0.00 0.00 73 1018.1
20260506070523 7 275 11.3 22.5 0.00 0.00 0.00 73 1018.0
20260506070206 7 279 11.3 22.5 0.00 0.00 0.00 73 1018.1
20260506062046 7 259 11.3 22.5 0.00 0.00 0.00 73 1017.9
20260506061615 7 255 11.3 24.1 0.00 0.00 0.00 73 1018.0
20260506061044 7 279 12.9 24.1 0.00 0.00 0.00 73 1017.9
20260506060537 7 265 14.5 24.1 0.00 0.00 0.00 73 1017.8
20260506060136 7 247 16.1 22.5 0.00 0.00 0.00 73 1017.8
20260506051111 8 281 16.1 30.6 0.00 0.00 0.00 71 1017.7
20260506050547 8 261 16.1 25.7 0.00 0.00 0.00 71 1017.7
20260506050209 8 285 12.9 29.0 0.00 0.00 0.00 70 1017.7
20260506045100 8 292 12.9 29.0 0.00 0.00 0.00 70 1017.6
20260506044652 8 272 12.9 29.0 0.00 0.00 0.00 70 1017.7
20260506044034 8 298 11.3 27.4 0.00 0.00 0.00 70 1017.6
20260506043521 8 248 14.5 29.0 0.00 0.00 0.00 70 1017.6
20260506043110 8 300 16.1 29.0 0.00 0.00 0.00 69 1017.3
20260506042611 8 288 12.9 27.4 0.00 0.00 0.00 69 1017.2
20260506042111 9 288 11.3 24.1 0.00 0.00 0.00 68 1017.0
20260506041647 9 267 12.9 25.7 0.00 0.00 0.00 68 1016.8
20260506041023 9 284 12.9 25.7 0.00 0.00 0.00 68 1016.8
20260506040529 9 317 12.9 22.5 0.00 0.00 0.00 67 1016.8
20260506040118 10 340 8.0 25.7 0.00 0.00 0.00 66 1016.7
20260506035530 10 290 12.9 27.4 0.00 0.00 0.00 65 1016.5
20260506035028 10 290 17.7 27.4 0.00 0.00 0.00 64 1016.5
20260506034614 10 272 11.3 25.7 0.00 0.00 0.00 64 1016.4
20260506034034 10 340 14.5 25.7 0.00 0.00 0.00 63 1016.0
20260506033548 10 335 11.3 30.6 0.00 0.00 0.00 64 1016.1
20260506033144 11 329 11.3 27.4 0.00 0.00 0.00 63 1016.0
20260506032526 11 308 12.9 30.6 0.00 0.00 0.00 62 1016.0
20260506032110 11 293 17.7 29.0 0.00 0.00 0.00 62 1016.0
20260506031625 11 312 16.1 27.4 0.00 0.00 0.00 61 1015.9
20260506031019 11 347 14.5 29.0 0.00 0.00 0.00 60 1015.8
20260506030522 11 334 12.9 27.4 0.00 0.00 0.00 59 1015.8
20260506030132 11 266 12.9 24.1 0.00 0.00 0.00 59 1015.8
20260506025616 12 285 14.5 27.4 0.00 0.00 0.00 59 1015.7
20260506025034 12 320 16.1 27.4 0.00 0.00 0.00 59 1015.6
20260506024616 12 327 14.5 27.4 0.00 0.00 0.00 57 1015.6
20260506024057 12 317 12.9 27.4 0.00 0.00 0.00 57 1015.6
20260506023615 12 297 14.5 30.6 0.00 0.00 0.00 56 1015.6
20260506023110 12 317 12.9 30.6 0.00 0.00 0.00 57 1015.4
20260506022533 12 340 12.9 29.0 0.00 0.00 0.00 57 1015.2
20260506022035 12 333 14.5 32.2 0.00 0.00 0.00 56 1015.2
20260506021628 12 319 16.1 32.2 0.00 0.00 0.00 56 1015.3
20260506021030 12 275 12.9 32.2 0.00 0.00 0.00 56 1015.3
20260506020519 12 300 17.7 32.2 0.00 0.00 0.00 55 1015.3
20260506020110 13 275 9.7 29.0 0.00 0.00 0.00 56 1015.3
20260506015545 13 298 12.9 29.0 0.00 0.00 0.00 54 1015.2
20260506015031 13 318 12.9 29.0 0.00 0.00 0.00 54 1015.3
20260506014611 13 223 14.5 29.0 0.00 0.00 0.00 54 1015.3
20260506014044 13 316 14.5 29.0 0.00 0.00 0.00 56 1015.3
20260506013546 13 317 12.9 29.0 0.00 0.00 0.00 55 1015.2
20260506013105 13 316 14.5 32.2 0.00 0.00 0.00 57 1015.2
20260506012535 13 342 16.1 32.2 0.00 0.00 0.00 58 1015.2
20260506012032 13 344 20.9 30.6 0.00 0.00 0.00 58 1015.2
20260506011615 13 324 17.7 30.6 0.00 0.00 0.00 57 1015.2
20260506011032 13 320 16.1 32.2 0.00 0.00 0.00 58 1015.2
20260506010519 13 318 14.5 32.2 0.00 0.00 0.00 58 1015.2
20260506010153 13 348 14.5 29.0 0.00 0.00 0.00 57 1015.3
20260506005522 13 323 17.7 32.2 0.00 0.00 0.00 57 1015.2
20260506005030 13 313 20.9 32.2 0.00 0.00 0.00 56 1015.2
20260506004555 13 321 16.1 32.2 0.00 0.00 0.00 57 1015.0
20260506004022 14 342 16.1 27.4 0.00 0.00 0.00 58 1015.2
20260506003522 14 313 11.3 27.4 0.00 0.00 0.00 59 1015.1
20260506003137 14 315 12.9 29.0 0.00 0.00 0.00 58 1015.2
20260506002546 14 321 17.7 29.0 0.00 0.00 0.00 56 1015.2
20260506002037 14 326 12.9 27.4 0.00 0.00 0.00 57 1015.2
20260506001631 14 283 12.9 27.4 0.00 0.00 0.00 57 1015.2
20260506001039 15 304 17.7 33.8 0.00 0.00 0.00 58 1015.3
20260506000542 15 327 16.1 30.6 0.00 0.00 0.00 58 1015.2
20260506000134 15 340 12.9 27.4 0.00 0.00 0.00 56 1015.2